{"data":{"norad_id":67173,"intl_designator":"2025-303L","name":"STARLINK-36183","alt_names":[],"object_type":"PAYLOAD","status":"ACTIVE","operator":null,"country":"US","launch_date":"2025-12-17","launch_site_code":"AFETR","launch_vehicle":null,"mission":null,"orbit_class":"UNKNOWN","rcs_meters":null,"size_class":null,"mass_kg":null,"dimensions":null,"purposes":["comms"],"wikipedia_slug":null,"has_3d_model":false,"image_url":null,"decayed_at":null,"tle_current":{"epoch":"2026-05-24T16:10:59.597760Z","epoch_age_seconds":106681,"freshness":"FRESH","line1":"1 67173U 25303L   26144.67430090  .00017515  00000+0  64426-3 0  9996","line2":"2 67173  43.0023 241.8042 0001712 272.6878  87.3778 15.27592445 24358","mean_motion":15.27592445,"eccentricity":0.0001712,"inclination_deg":43.0023,"raan_deg":241.8042,"arg_perigee_deg":272.6878,"mean_anomaly_deg":87.3778,"bstar":0.00064426,"rev_number":2435,"period_min":94.265980740694,"perigee_km":481.83720280563,"apogee_km":484.18646016553,"semimajor_km":6861.1488314856,"source":"CELESTRAK","updated_at":"2026-05-25T13:38:21.481772Z"}}}